TimeEDT,TemperatureF,Dew PointF,Humidity,Sea Level PressureIn,VisibilityMPH,Wind Direction,Wind SpeedMPH,Gust SpeedMPH,PrecipitationIn,Events,Conditions,WindDirDegrees,DateUTC
12:15 AM,48.2,14.0,25,30.07,10.0,Calm,Calm,-,N/A,,Scattered Clouds,0,2013-03-20 04:15:00
12:35 AM,48.0,14.2,26,30.07,10.0,Calm,Calm,-,N/A,,Mostly Cloudy,0,2013-03-20 04:35:00
12:55 AM,47.3,13.6,26,30.07,10.0,Calm,Calm,-,N/A,,Scattered Clouds,0,2013-03-20 04:55:00
1:35 AM,46.6,13.1,26,30.07,10.0,Calm,Calm,-,N/A,,Mostly Cloudy,0,2013-03-20 05:35:00
1:55 AM,45.5,12.6,26,30.07,10.0,NNW,4.6,-,N/A,,Mostly Cloudy,330,2013-03-20 05:55:00
2:15 AM,45.0,12.4,27,30.07,10.0,NNW,4.6,-,N/A,,Overcast,330,2013-03-20 06:15:00
2:35 AM,44.8,11.5,26,30.07,10.0,Calm,Calm,-,N/A,,Overcast,0,2013-03-20 06:35:00
2:55 AM,44.2,13.6,29,30.07,10.0,Calm,Calm,-,N/A,,Mostly Cloudy,0,2013-03-20 06:55:00
3:15 AM,43.9,11.3,27,30.06,10.0,Calm,Calm,-,N/A,,Mostly Cloudy,0,2013-03-20 07:15:00
3:35 AM,43.9,9.7,25,30.06,10.0,NNW,3.5,-,N/A,,Mostly Cloudy,340,2013-03-20 07:35:00
3:55 AM,43.7,10.2,26,30.06,10.0,North,3.5,-,N/A,,Mostly Cloudy,350,2013-03-20 07:55:00
4:15 AM,43.3,11.3,27,30.05,10.0,North,4.6,-,N/A,,Mostly Cloudy,350,2013-03-20 08:15:00
4:35 AM,43.2,8.6,24,30.05,10.0,NNW,5.8,-,N/A,,Overcast,340,2013-03-20 08:35:00
4:55 AM,43.0,7.9,24,30.05,10.0,North,3.5,-,N/A,,Mostly Cloudy,350,2013-03-20 08:55:00
5:15 AM,43.0,7.7,24,30.05,10.0,North,3.5,-,N/A,,Scattered Clouds,350,2013-03-20 09:15:00
5:35 AM,42.4,7.5,24,30.06,10.0,NNW,4.6,-,N/A,,Scattered Clouds,340,2013-03-20 09:35:00
5:55 AM,42.3,7.3,24,30.06,10.0,Calm,Calm,-,N/A,,Clear,0,2013-03-20 09:55:00
6:15 AM,41.9,7.9,25,30.07,10.0,Calm,Calm,-,N/A,,Clear,0,2013-03-20 10:15:00
6:55 AM,41.7,8.6,26,30.08,10.0,NNW,4.6,-,N/A,,Overcast,340,2013-03-20 10:55:00
7:15 AM,41.7,8.6,26,30.09,10.0,Calm,Calm,-,N/A,,Overcast,0,2013-03-20 11:15:00
7:35 AM,41.5,9.0,26,30.11,10.0,Calm,Calm,-,N/A,,Overcast,0,2013-03-20 11:35:00
7:55 AM,41.5,9.7,27,30.10,10.0,NNW,6.9,-,N/A,,Overcast,340,2013-03-20 11:55:00
8:15 AM,41.5,9.3,27,30.12,10.0,NNW,3.5,-,N/A,,Mostly Cloudy,330,2013-03-20 12:15:00
8:35 AM,41.9,10.2,27,30.12,10.0,Calm,Calm,-,N/A,,Scattered Clouds,0,2013-03-20 12:35:00
8:55 AM,42.1,10.2,27,30.13,10.0,NNW,4.6,-,N/A,,Scattered Clouds,330,2013-03-20 12:55:00
9:15 AM,42.8,10.0,26,30.13,10.0,NNW,6.9,-,N/A,,Scattered Clouds,330,2013-03-20 13:15:00
9:35 AM,43.3,10.4,26,30.14,10.0,NW,5.8,-,N/A,,Clear,310,2013-03-20 13:35:00
9:55 AM,43.3,9.7,25,30.14,10.0,Calm,Calm,-,N/A,,Scattered Clouds,0,2013-03-20 13:55:00
10:15 AM,43.7,9.1,24,30.14,10.0,NNW,4.6,-,N/A,,Scattered Clouds,330,2013-03-20 14:15:00
10:35 AM,43.9,9.0,24,30.14,10.0,NNW,4.6,-,N/A,,Scattered Clouds,340,2013-03-20 14:35:00
11:15 AM,44.1,9.3,24,30.13,10.0,Calm,Calm,-,N/A,,Scattered Clouds,0,2013-03-20 15:15:00
11:35 AM,44.8,9.1,23,30.13,10.0,WNW,3.5,-,N/A,,Scattered Clouds,300,2013-03-20 15:35:00
11:55 AM,45.5,9.3,23,30.12,10.0,NNE,4.6,-,N/A,,Clear,30,2013-03-20 15:55:00
12:15 PM,46.2,10.0,23,30.11,10.0,Calm,Calm,-,N/A,,Clear,0,2013-03-20 16:15:00
12:35 PM,46.8,10.4,23,30.10,10.0,Calm,Calm,-,N/A,,Clear,0,2013-03-20 16:35:00
12:55 PM,47.3,9.9,22,30.09,10.0,NNW,4.6,-,N/A,,Clear,340,2013-03-20 16:55:00
1:15 PM,47.5,9.7,22,30.08,10.0,Calm,Calm,-,N/A,,Clear,0,2013-03-20 17:15:00
1:35 PM,48.7,10.6,21,30.05,10.0,Calm,Calm,-,N/A,,Clear,0,2013-03-20 17:35:00
1:55 PM,50.2,10.4,20,30.04,10.0,SW,4.6,-,N/A,,Clear,220,2013-03-20 17:55:00
2:15 PM,50.7,12.0,21,30.02,10.0,NW,10.4,-,N/A,,Clear,310,2013-03-20 18:15:00
2:35 PM,50.9,12.0,21,30.01,10.0,SW,8.1,-,N/A,,Clear,230,2013-03-20 18:35:00
2:55 PM,52.3,10.0,18,29.99,10.0,West,6.9,16.1,N/A,,Clear,260,2013-03-20 18:55:00
3:15 PM,52.2,10.2,19,29.97,10.0,Calm,Calm,-,N/A,,Clear,0,2013-03-20 19:15:00
3:35 PM,53.2,11.7,19,29.95,10.0,SSW,10.4,-,N/A,,Clear,210,2013-03-20 19:35:00
3:55 PM,53.6,11.7,19,29.93,10.0,South,9.2,-,N/A,,Clear,180,2013-03-20 19:55:00
4:15 PM,53.1,12.2,20,29.92,10.0,South,10.4,-,N/A,,Clear,190,2013-03-20 20:15:00
4:35 PM,52.7,11.1,19,29.91,10.0,SSE,5.8,-,N/A,,Clear,160,2013-03-20 20:35:00
4:55 PM,53.6,12.2,19,29.90,10.0,SW,8.1,-,N/A,,Clear,230,2013-03-20 20:55:00
5:15 PM,54.0,11.5,18,29.89,10.0,South,10.4,16.1,N/A,,Clear,190,2013-03-20 21:15:00
5:35 PM,53.4,11.1,19,29.89,10.0,SW,9.2,-,N/A,,Clear,220,2013-03-20 21:35:00
5:55 PM,53.6,10.8,18,29.89,10.0,SSW,11.5,-,N/A,,Clear,200,2013-03-20 21:55:00
6:15 PM,53.8,10.9,18,29.88,10.0,South,10.4,-,N/A,,Clear,190,2013-03-20 22:15:00
6:35 PM,53.2,12.0,19,29.88,10.0,SW,6.9,-,N/A,,Clear,220,2013-03-20 22:35:00
6:55 PM,53.1,11.8,19,29.88,10.0,SSW,9.2,-,N/A,,Clear,210,2013-03-20 22:55:00
7:15 PM,52.2,12.9,21,29.87,10.0,South,4.6,-,N/A,,Clear,190,2013-03-20 23:15:00
7:35 PM,50.7,13.5,23,29.87,10.0,South,4.6,-,N/A,,Clear,180,2013-03-20 23:35:00
7:55 PM,49.1,14.9,26,29.87,10.0,SSE,5.8,-,N/A,,Clear,160,2013-03-20 23:55:00
8:15 PM,47.1,16.9,30,29.86,10.0,SE,3.5,-,N/A,,Clear,140,2013-03-21 00:15:00
8:35 PM,46.6,17.4,31,29.86,10.0,SE,3.5,-,N/A,,Clear,140,2013-03-21 00:35:00
8:55 PM,45.5,19.0,35,29.85,10.0,Calm,Calm,-,N/A,,Clear,0,2013-03-21 00:55:00
9:15 PM,42.8,18.3,37,29.84,10.0,Calm,Calm,-,N/A,,Clear,0,2013-03-21 01:15:00
9:35 PM,42.8,19.0,39,29.84,10.0,Calm,Calm,-,N/A,,Clear,0,2013-03-21 01:35:00
9:55 PM,41.5,22.3,46,29.84,10.0,Calm,Calm,-,N/A,,Scattered Clouds,0,2013-03-21 01:55:00
10:15 PM,43.2,20.7,41,29.83,10.0,Calm,Calm,-,N/A,,Mostly Cloudy,0,2013-03-21 02:15:00
10:35 PM,45.0,21.7,40,29.83,10.0,SSW,5.8,-,N/A,,Overcast,210,2013-03-21 02:35:00
10:55 PM,44.8,20.1,37,29.85,10.0,WNW,4.6,-,N/A,,Overcast,290,2013-03-21 02:55:00
11:15 PM,45.0,19.8,37,29.84,10.0,Calm,Calm,-,N/A,,Overcast,0,2013-03-21 03:15:00
11:35 PM,47.5,24.3,40,29.84,10.0,West,6.9,-,N/A,,Light Drizzle,260,2013-03-21 03:35:00
11:55 PM,46.9,23.7,40,29.84,10.0,West,5.8,-,N/A,,Overcast,280,2013-03-21 03:55:00